| time (UTC) | temp F | wind direction | speed MPH | gust MPH | rain 1hr in | rain 24hr in | rain mn in | humidity % | barometer mb |
| 20260904001053 | 76 | 0.0 | 0.0 | 0.00 | 0.30 | 0.30 | 83 | 1011.9 | |
| 20260904000556 | 77 | 0.0 | 0.0 | 0.00 | 0.30 | 0.30 | 83 | 1011.6 | |
| 20260904000105 | 77 | 0.0 | 0.0 | 0.00 | 0.30 | 0.30 | 83 | 1011.5 | |
| 20260903235555 | 77 | 0.0 | 0.0 | 0.00 | 0.30 | 0.30 | 83 | 1011.5 | |
| 20260903235057 | 77 | 0.0 | 0.0 | 0.00 | 0.30 | 0.30 | 83 | 1011.3 | |
| 20260903234604 | 77 | 0.0 | 0.0 | 0.00 | 0.30 | 0.30 | 83 | 1011.4 | |
| 20260903234056 | 77 | 0.0 | 0.0 | 0.00 | 0.30 | 0.30 | 82 | 1011.5 | |
| 20260903233555 | 78 | 0.0 | 0.0 | 0.00 | 0.30 | 0.30 | 82 | 1011.6 | |
| 20260903233105 | 78 | 0.0 | 0.0 | 0.00 | 0.30 | 0.30 | 82 | 1011.5 | |
| 20260903232557 | 78 | 0.0 | 0.0 | 0.00 | 0.30 | 0.30 | 82 | 1011.4 | |
| 20260903232056 | 78 | 0.0 | 0.0 | 0.00 | 0.30 | 0.30 | 82 | 1011.2 | |
| 20260903231619 | 78 | 0.0 | 0.0 | 0.00 | 0.30 | 0.30 | 82 | 1011.1 | |
| 20260903231054 | 78 | 0.0 | 0.0 | 0.00 | 0.30 | 0.30 | 82 | 1011.3 | |
| 20260903230557 | 79 | 1.0 | 0.0 | 0.00 | 0.30 | 0.30 | 82 | 1011.5 | |
| 20260903230114 | 79 | 2.0 | 7.0 | 0.00 | 0.30 | 0.30 | 82 | 1011.4 | |
| 20260903225556 | 79 | 245 | 2.0 | 7.0 | 0.00 | 0.30 | 0.30 | 82 | 1011.4 |
| 20260903225055 | 79 | 267 | 1.0 | 6.0 | 0.00 | 0.30 | 0.30 | 82 | 1011.6 |
| 20260903224600 | 79 | 271 | 1.0 | 6.0 | 0.00 | 0.30 | 0.30 | 82 | 1011.5 |
| 20260903224057 | 79 | 275 | 2.0 | 4.0 | 0.00 | 0.30 | 0.30 | 82 | 1011.6 |
| 20260903223559 | 80 | 275 | 1.0 | 4.0 | 0.00 | 0.30 | 0.30 | 82 | 1011.6 |
| 20260903223117 | 80 | 275 | 2.0 | 4.0 | 0.00 | 0.30 | 0.30 | 82 | 1011.5 |
| 20260903222555 | 80 | 275 | 0.0 | 3.0 | 0.00 | 0.30 | 0.30 | 82 | 1011.6 |
| 20260903222056 | 80 | 0 | 0.0 | 4.0 | 0.00 | 0.30 | 0.30 | 82 | 1011.6 |
| 20260903221604 | 80 | 0 | 1.0 | 4.0 | 0.00 | 0.30 | 0.30 | 82 | 1011.7 |
| 20260903221057 | 80 | 279 | 1.0 | 3.0 | 0.00 | 0.30 | 0.30 | 82 | 1011.6 |
| 20260903220553 | 81 | 288 | 0.0 | 2.0 | 0.00 | 0.30 | 0.30 | 82 | 1011.7 |
| 20260903220111 | 81 | 0 | 0.0 | 0.0 | 0.00 | 0.30 | 0.30 | 82 | 1011.6 |
| 20260903215557 | 81 | 0 | 0.0 | 0.0 | 0.00 | 0.30 | 0.30 | 81 | 1011.5 |
| 20260903215053 | 81 | 0 | 0.0 | 0.0 | 0.00 | 0.30 | 0.30 | 81 | 1011.6 |
| 20260903214601 | 81 | 0 | 0.0 | 0.0 | 0.00 | 0.30 | 0.30 | 81 | 1011.6 |
| 20260903214057 | 81 | 0 | 0.0 | 0.0 | 0.00 | 0.30 | 0.30 | 81 | 1011.6 |
| 20260903213556 | 81 | 0 | 0.0 | 0.0 | 0.00 | 0.30 | 0.30 | 80 | 1011.6 |
| 20260903213106 | 82 | 0 | 0.0 | 0.0 | 0.00 | 0.30 | 0.30 | 81 | 1011.5 |
| 20260903212557 | 82 | 0 | 0.0 | 0.0 | 0.00 | 0.30 | 0.30 | 81 | 1011.3 |
| 20260903212059 | 82 | 0 | 0.0 | 0.0 | 0.00 | 0.30 | 0.30 | 81 | 1011.3 |
| 20260903211616 | 82 | 0 | 0.0 | 0.0 | 0.00 | 0.30 | 0.30 | 81 | 1011.4 |
| 20260903211058 | 82 | 0 | 0.0 | 0.0 | 0.00 | 0.30 | 0.30 | 81 | 1011.5 |
| 20260903210558 | 82 | 0 | 0.0 | 0.0 | 0.00 | 0.30 | 0.30 | 81 | 1011.6 |
| 20260903210101 | 82 | 0 | 0.0 | 0.0 | 0.00 | 0.30 | 0.30 | 81 | 1011.6 |
| 20260903205558 | 82 | 0 | 0.0 | 0.0 | 0.00 | 0.31 | 0.30 | 81 | 1011.7 |
| 20260903205058 | 82 | 0 | 0.0 | 0.0 | 0.00 | 0.31 | 0.30 | 80 | 1011.6 |
| 20260903204603 | 82 | 0 | 0.0 | 0.0 | 0.00 | 0.31 | 0.30 | 80 | 1011.6 |
| 20260903204058 | 82 | 0 | 0.0 | 0.0 | 0.00 | 0.31 | 0.30 | 80 | 1011.5 |
| 20260903203557 | 82 | 0 | 0.0 | 0.0 | 0.00 | 0.31 | 0.30 | 80 | 1011.5 |
| 20260903203109 | 82 | 0 | 0.0 | 0.0 | 0.00 | 0.31 | 0.30 | 80 | 1011.7 |
| 20260903202558 | 82 | 0 | 0.0 | 0.0 | 0.00 | 0.31 | 0.30 | 81 | 1011.7 |
| 20260903202059 | 82 | 0 | 0.0 | 0.0 | 0.00 | 0.31 | 0.30 | 80 | 1011.7 |
| 20260903201602 | 82 | 0 | 0.0 | 3.0 | 0.00 | 0.31 | 0.30 | 80 | 1011.7 |
| 20260903201058 | 82 | 0 | 0.0 | 4.0 | 0.00 | 0.31 | 0.30 | 80 | 1011.7 |
| 20260903200558 | 82 | 290 | 0.0 | 4.0 | 0.00 | 0.31 | 0.30 | 81 | 1011.7 |
| 20260903200110 | 82 | 289 | 0.0 | 2.0 | 0.00 | 0.31 | 0.30 | 81 | 1011.7 |
| 20260903195556 | 82 | 0 | 0.0 | 2.0 | 0.00 | 0.35 | 0.30 | 80 | 1011.7 |
| 20260903195059 | 82 | 0 | 0.0 | 7.0 | 0.00 | 0.35 | 0.30 | 82 | 1011.7 |
| 20260903194559 | 82 | 0 | 0.0 | 7.0 | 0.00 | 0.35 | 0.30 | 82 | 1011.8 |
| 20260903194057 | 82 | 0 | 1.0 | 7.0 | 0.00 | 0.35 | 0.30 | 82 | 1011.9 |
| 20260903193555 | 81 | 46 | 1.0 | 6.0 | 0.00 | 0.35 | 0.30 | 81 | 1011.8 |
| 20260903193106 | 81 | 0 | 0.0 | 7.0 | 0.00 | 0.35 | 0.30 | 81 | 1011.7 |
| 20260903192556 | 81 | 83 | 2.0 | 7.0 | 0.00 | 0.35 | 0.30 | 81 | 1011.8 |
| 20260903192055 | 81 | 76 | 0.0 | 6.0 | 0.00 | 0.35 | 0.30 | 81 | 1011.9 |
| 20260903191608 | 81 | 0 | 0.0 | 5.0 | 0.00 | 0.35 | 0.30 | 81 | 1011.9 |
| 20260903191058 | 81 | 0 | 2.0 | 6.0 | 0.00 | 0.35 | 0.30 | 80 | 1011.8 |
| 20260903190557 | 81 | 61 | 2.0 | 8.0 | 0.00 | 0.35 | 0.30 | 81 | 1012.0 |
| 20260903185557 | 81 | 76 | 4.0 | 7.0 | 0.00 | 0.35 | 0.30 | 80 | 1012.1 |
| 20260903185056 | 82 | 292 | 1.0 | 3.0 | 0.00 | 0.35 | 0.30 | 80 | 1012.0 |
| 20260903184606 | 82 | 288 | 0.0 | 5.0 | 0.00 | 0.35 | 0.30 | 81 | 1012.1 |
| 20260903184058 | 82 | 288 | 1.0 | 5.0 | 0.00 | 0.35 | 0.30 | 81 | 1012.2 |
| 20260903183556 | 82 | 0 | 0.0 | 5.0 | 0.00 | 0.35 | 0.30 | 81 | 1012.3 |
| 20260903183122 | 82 | 0 | 1.0 | 8.0 | 0.00 | 0.35 | 0.30 | 82 | 1012.4 |
| 20260903182557 | 82 | 0 | 3.0 | 8.0 | 0.00 | 0.35 | 0.30 | 82 | 1012.5 |
| 20260903182059 | 82 | 0 | 1.0 | 4.0 | 0.00 | 0.35 | 0.30 | 82 | 1012.4 |
| 20260903181639 | 82 | 285 | 0.0 | 3.0 | 0.00 | 0.35 | 0.30 | 83 | 1012.3 |
| 20260903181056 | 82 | 0 | 0.0 | 4.0 | 0.00 | 0.35 | 0.30 | 83 | 1012.3 |
| 20260903180556 | 81 | 285 | 1.0 | 4.0 | 0.00 | 0.35 | 0.30 | 84 | 1012.5 |
| 20260903180104 | 81 | 285 | 0.0 | 8.0 | 0.00 | 0.35 | 0.30 | 84 | 1012.4 |
| 20260903175556 | 81 | 0 | 2.0 | 8.0 | 0.00 | 0.35 | 0.30 | 85 | 1012.5 |
| 20260903175100 | 81 | 281 | 0.0 | 7.0 | 0.00 | 0.35 | 0.30 | 85 | 1012.7 |
| 20260903174608 | 81 | 290 | 3.0 | 7.0 | 0.00 | 0.35 | 0.30 | 86 | 1012.5 |
| 20260903174056 | 80 | 275 | 1.0 | 7.0 | 0.00 | 0.35 | 0.30 | 87 | 1012.5 |
| 20260903173558 | 80 | 283 | 1.0 | 7.0 | 0.00 | 0.35 | 0.30 | 87 | 1012.5 |
| 20260903173112 | 80 | 288 | 1.0 | 4.0 | 0.00 | 0.35 | 0.30 | 87 | 1012.7 |
| 20260903172557 | 80 | 288 | 1.0 | 7.0 | 0.00 | 0.35 | 0.30 | 87 | 1012.7 |
| 20260903172057 | 79 | 287 | 2.0 | 8.0 | 0.00 | 0.35 | 0.30 | 87 | 1012.8 |
| 20260903171606 | 79 | 240 | 0.0 | 8.0 | 0.00 | 0.35 | 0.30 | 88 | 1012.8 |
| 20260903171057 | 79 | 290 | 2.0 | 8.0 | 0.00 | 0.35 | 0.30 | 88 | 1012.8 |
| 20260903170556 | 78 | 267 | 2.0 | 6.0 | 0.00 | 0.35 | 0.30 | 88 | 1012.8 |
| 20260903170103 | 78 | 350 | 0.0 | 6.0 | 0.00 | 0.35 | 0.30 | 88 | 1012.7 |
| 20260903165556 | 78 | 55 | 0.0 | 6.0 | 0.00 | 0.35 | 0.30 | 89 | 1012.9 |
| 20260903165057 | 78 | 0 | 1.0 | 5.0 | 0.00 | 0.35 | 0.30 | 89 | 1012.9 |
| 20260903164600 | 77 | 277 | 1.0 | 4.0 | 0.00 | 0.35 | 0.30 | 89 | 1012.9 |
| 20260903164056 | 77 | 308 | 1.0 | 4.0 | 0.00 | 0.35 | 0.30 | 89 | 1012.9 |
| 20260903163557 | 77 | 0 | 0.0 | 8.0 | 0.00 | 0.35 | 0.30 | 88 | 1012.9 |
| 20260903163106 | 77 | 309 | 2.0 | 8.0 | 0.00 | 0.35 | 0.30 | 88 | 1013.0 |
| 20260903162556 | 77 | 257 | 2.0 | 9.0 | 0.00 | 0.35 | 0.30 | 88 | 1013.1 |
| 20260903162056 | 77 | 265 | 3.0 | 9.0 | 0.00 | 0.35 | 0.30 | 90 | 1013.2 |
| 20260903161618 | 77 | 239 | 2.0 | 8.0 | 0.00 | 0.35 | 0.30 | 91 | 1013.2 |
| 20260903161058 | 76 | 256 | 3.0 | 9.0 | 0.00 | 0.35 | 0.30 | 91 | 1013.4 |
| 20260903160556 | 76 | 265 | 3.0 | 9.0 | 0.00 | 0.35 | 0.30 | 90 | 1013.6 |
| 20260903155557 | 75 | 244 | 2.0 | 8.0 | 0.00 | 0.35 | 0.30 | 92 | 1013.6 |
| 20260903155057 | 76 | 292 | 1.0 | 9.0 | 0.00 | 0.35 | 0.30 | 92 | 1013.6 |
| 20260903154606 | 75 | 0 | 3.0 | 9.0 | 0.00 | 0.35 | 0.30 | 93 | 1013.6 |
| 20260903154056 | 76 | 311 | 3.0 | 9.0 | 0.00 | 0.35 | 0.30 | 94 | 1013.7 |
| 20260903153555 | 75 | 268 | 2.0 | 5.0 | 0.00 | 0.35 | 0.30 | 93 | 1013.7 |
| 20260903153107 | 75 | 0 | 2.0 | 8.0 | 0.00 | 0.35 | 0.30 | 93 | 1013.7 |
| 20260903152557 | 75 | 288 | 1.0 | 8.0 | 0.00 | 0.35 | 0.30 | 94 | 1013.6 |
| 20260903152117 | 75 | 200 | 3.0 | 9.0 | 0.00 | 0.35 | 0.30 | 94 | 1013.7 |
| 20260903151612 | 75 | 261 | 1.0 | 9.0 | 0.00 | 0.35 | 0.30 | 95 | 1013.7 |
| 20260903151056 | 74 | 255 | 3.0 | 9.0 | 0.00 | 0.35 | 0.30 | 95 | 1013.8 |
| 20260903150557 | 73 | 251 | 2.0 | 8.0 | 0.00 | 0.35 | 0.30 | 95 | 1013.9 |
| 20260903150104 | 73 | 276 | 1.0 | 8.0 | 0.00 | 0.35 | 0.30 | 95 | 1013.9 |
| 20260903145557 | 73 | 261 | 2.0 | 7.0 | 0.00 | 0.35 | 0.30 | 95 | 1013.9 |
| 20260903145056 | 73 | 257 | 4.0 | 7.0 | 0.00 | 0.35 | 0.30 | 95 | 1013.8 |
| 20260903144603 | 73 | 246 | 2.0 | 7.0 | 0.00 | 0.35 | 0.30 | 96 | 1013.8 |
| 20260903144058 | 73 | 232 | 0.0 | 3.0 | 0.00 | 0.35 | 0.30 | 96 | 1013.7 |
| 20260903143555 | 73 | 0 | 1.0 | 4.0 | 0.00 | 0.35 | 0.30 | 96 | 1013.7 |
| 20260903143105 | 72 | 232 | 1.0 | 9.0 | 0.00 | 0.35 | 0.30 | 96 | 1013.7 |
| 20260903142556 | 72 | 232 | 3.0 | 9.0 | 0.00 | 0.35 | 0.30 | 96 | 1013.7 |
| 20260903142057 | 72 | 272 | 1.0 | 8.0 | 0.01 | 0.35 | 0.30 | 96 | 1013.8 |
| 20260903141603 | 72 | 231 | 1.0 | 9.0 | 0.01 | 0.35 | 0.30 | 96 | 1013.9 |
| 20260903141055 | 72 | 237 | 3.0 | 9.0 | 0.01 | 0.35 | 0.30 | 96 | 1013.9 |
| 20260903140555 | 72 | 360 | 2.0 | 5.0 | 0.01 | 0.35 | 0.30 | 96 | 1014.1 |
| 20260903140104 | 72 | 237 | 1.0 | 5.0 | 0.01 | 0.35 | 0.30 | 96 | 1014.1 |
| 20260903135557 | 72 | 0 | 2.0 | 5.0 | 0.01 | 0.35 | 0.30 | 96 | 1014.0 |
| 20260903135056 | 72 | 247 | 1.0 | 4.0 | 0.01 | 0.35 | 0.30 | 96 | 1014.0 |
| 20260903134611 | 72 | 0 | 0.0 | 3.0 | 0.01 | 0.35 | 0.30 | 96 | 1014.0 |
| 20260903134055 | 72 | 0 | 0.0 | 3.0 | 0.01 | 0.35 | 0.30 | 96 | 1014.2 |
| 20260903133557 | 71 | 0 | 1.0 | 7.0 | 0.01 | 0.35 | 0.30 | 96 | 1014.1 |
| 20260903133106 | 71 | 256 | 2.0 | 7.0 | 0.01 | 0.35 | 0.30 | 96 | 1014.0 |
| 20260903132556 | 71 | 241 | 2.0 | 5.0 | 0.01 | 0.35 | 0.30 | 96 | 1014.0 |
| 20260903132056 | 71 | 240 | 2.0 | 9.0 | 0.00 | 0.34 | 0.29 | 96 | 1014.2 |
| 20260903131604 | 71 | 0 | 2.0 | 9.0 | 0.00 | 0.34 | 0.29 | 96 | 1014.3 |
| 20260903131056 | 71 | 252 | 2.0 | 7.0 | 0.00 | 0.34 | 0.29 | 96 | 1014.4 |
| 20260903130557 | 71 | 256 | 1.0 | 7.0 | 0.00 | 0.34 | 0.29 | 96 | 1014.4 |
| 20260903130106 | 72 | 0 | 1.0 | 7.0 | 0.00 | 0.34 | 0.29 | 96 | 1014.5 |
| 20260903125556 | 72 | 255 | 2.0 | 7.0 | 0.00 | 0.34 | 0.29 | 96 | 1014.4 |
| 20260903125057 | 72 | 0 | 1.0 | 3.0 | 0.00 | 0.34 | 0.29 | 96 | 1014.5 |
| 20260903124607 | 71 | 270 | 0.0 | 4.0 | 0.00 | 0.34 | 0.29 | 96 | 1014.4 |
| 20260903124055 | 71 | 0 | 2.0 | 4.0 | 0.00 | 0.34 | 0.29 | 96 | 1014.4 |
| 20260903123555 | 71 | 0 | 1.0 | 4.0 | 0.00 | 0.34 | 0.29 | 96 | 1014.6 |
| 20260903123103 | 70 | 0 | 0.0 | 0.0 | 0.00 | 0.34 | 0.29 | 95 | 1014.6 |
| 20260903122557 | 70 | 0 | 0.0 | 0.0 | 0.00 | 0.34 | 0.29 | 96 | 1014.8 |
| 20260903122056 | 70 | 0 | 0.0 | 0.0 | 0.00 | 0.34 | 0.29 | 95 | 1014.9 |
| 20260903121603 | 70 | 0 | 0.0 | 0.0 | 0.00 | 0.34 | 0.29 | 95 | 1014.9 |
| 20260903121056 | 70 | 0 | 0.0 | 0.0 | 0.00 | 0.34 | 0.29 | 95 | 1014.9 |
| 20260903120558 | 70 | 0 | 0.0 | 0.0 | 0.00 | 0.34 | 0.29 | 95 | 1014.7 |
| 20260903120106 | 70 | 0 | 0.0 | 2.0 | 0.00 | 0.34 | 0.29 | 95 | 1014.8 |
| 20260903115555 | 70 | 0 | 0.0 | 3.0 | 0.00 | 0.34 | 0.29 | 95 | 1014.9 |
| 20260903115056 | 70 | 0 | 0.0 | 3.0 | 0.00 | 0.34 | 0.29 | 95 | 1014.8 |
| 20260903114604 | 70 | 273 | 0.0 | 1.0 | 0.00 | 0.34 | 0.29 | 95 | 1015.0 |
| 20260903114055 | 69 | 0 | 0.0 | 1.0 | 0.00 | 0.34 | 0.29 | 95 | 1014.9 |
| 20260903113559 | 69 | 0.0 | 0.0 | 0.00 | 0.34 | 0.29 | 95 | 1014.9 | |
| 20260903113105 | 69 | 0.0 | 0.0 | 0.00 | 0.34 | 0.29 | 95 | 1014.8 | |
| 20260903112557 | 69 | 0.0 | 0.0 | 0.00 | 0.34 | 0.29 | 95 | 1015.0 | |
| 20260903112057 | 69 | 0.0 | 0.0 | 0.00 | 0.34 | 0.29 | 95 | 1015.0 | |
| 20260903111603 | 69 | 0.0 | 0.0 | 0.00 | 0.34 | 0.29 | 95 | 1015.0 | |
| 20260903111056 | 69 | 0.0 | 0.0 | 0.00 | 0.34 | 0.29 | 95 | 1015.1 | |
| 20260903110559 | 69 | 0.0 | 0.0 | 0.00 | 0.34 | 0.29 | 95 | 1015.0 | |
| 20260903110106 | 69 | 0.0 | 0.0 | 0.00 | 0.34 | 0.29 | 95 | 1014.9 | |
| 20260903105559 | 69 | 0.0 | 0.0 | 0.00 | 0.34 | 0.29 | 95 | 1015.0 | |
| 20260903105056 | 69 | 0.0 | 0.0 | 0.00 | 0.34 | 0.29 | 95 | 1015.1 | |
| 20260903104608 | 69 | 0.0 | 0.0 | 0.00 | 0.34 | 0.29 | 95 | 1015.1 | |
| 20260903104056 | 69 | 0.0 | 0.0 | 0.00 | 0.34 | 0.29 | 95 | 1015.0 | |
| 20260903103556 | 69 | 0.0 | 0.0 | 0.00 | 0.34 | 0.29 | 95 | 1014.8 | |
| 20260903103106 | 69 | 0.0 | 0.0 | 0.00 | 0.34 | 0.29 | 95 | 1014.9 | |
| 20260903102557 | 69 | 0.0 | 0.0 | 0.00 | 0.34 | 0.29 | 95 | 1014.8 | |
| 20260903102057 | 69 | 0.0 | 0.0 | 0.00 | 0.34 | 0.29 | 95 | 1014.6 | |
| 20260903101605 | 69 | 0.0 | 0.0 | 0.00 | 0.34 | 0.29 | 95 | 1014.5 | |
| 20260903101056 | 69 | 0.0 | 0.0 | 0.00 | 0.34 | 0.29 | 95 | 1014.5 | |
| 20260903100556 | 69 | 0.0 | 0.0 | 0.00 | 0.34 | 0.29 | 95 | 1014.4 | |
| 20260903100106 | 69 | 0.0 | 0.0 | 0.00 | 0.34 | 0.29 | 94 | 1014.4 | |
| 20260903095558 | 69 | 0.0 | 0.0 | 0.00 | 0.34 | 0.29 | 94 | 1014.2 | |
| 20260903095058 | 68 | 0.0 | 0.0 | 0.00 | 0.34 | 0.29 | 94 | 1014.3 | |
| 20260903094611 | 68 | 0.0 | 0.0 | 0.00 | 0.34 | 0.29 | 94 | 1014.3 | |
| 20260903094059 | 68 | 0.0 | 0.0 | 0.00 | 0.34 | 0.29 | 94 | 1014.3 | |
| 20260903093559 | 69 | 0.0 | 0.0 | 0.00 | 0.34 | 0.29 | 94 | 1014.2 | |
| 20260903093104 | 69 | 0.0 | 0.0 | 0.00 | 0.34 | 0.29 | 94 | 1014.2 | |
| 20260903092558 | 69 | 0.0 | 0.0 | 0.00 | 0.34 | 0.29 | 94 | 1014.1 | |
| 20260903092057 | 69 | 0.0 | 0.0 | 0.00 | 0.34 | 0.29 | 94 | 1014.1 | |
| 20260903091606 | 68 | 0.0 | 0.0 | 0.00 | 0.34 | 0.29 | 94 | 1014.1 | |
| 20260903091058 | 68 | 0.0 | 0.0 | 0.00 | 0.34 | 0.29 | 94 | 1014.2 | |
| 20260903090558 | 68 | 0.0 | 0.0 | 0.00 | 0.34 | 0.29 | 94 | 1014.1 | |
| 20260903085558 | 68 | 0.0 | 0.0 | 0.00 | 0.34 | 0.29 | 94 | 1014.6 | |
| 20260903085057 | 68 | 0.0 | 0.0 | 0.00 | 0.34 | 0.29 | 94 | 1014.4 | |
| 20260903084604 | 68 | 0.0 | 0.0 | 0.00 | 0.34 | 0.29 | 94 | 1014.5 | |
| 20260903084058 | 68 | 0.0 | 0.0 | 0.00 | 0.34 | 0.29 | 94 | 1014.4 | |
| 20260903083558 | 68 | 0.0 | 0.0 | 0.00 | 0.34 | 0.29 | 94 | 1014.5 | |
| 20260903083107 | 68 | 0.0 | 0.0 | 0.00 | 0.34 | 0.29 | 94 | 1014.5 | |
| 20260903082554 | 68 | 0.0 | 0.0 | 0.00 | 0.34 | 0.29 | 94 | 1014.6 | |
| 20260903082058 | 68 | 0.0 | 0.0 | 0.00 | 0.34 | 0.29 | 94 | 1014.5 | |
| 20260903081609 | 68 | 0.0 | 0.0 | 0.00 | 0.34 | 0.29 | 94 | 1014.8 | |
| 20260903081100 | 68 | 0.0 | 0.0 | 0.00 | 0.34 | 0.29 | 93 | 1015.0 | |
| 20260903080558 | 68 | 0.0 | 0.0 | 0.01 | 0.34 | 0.29 | 93 | 1015.0 | |
| 20260903080110 | 68 | 0.0 | 0.0 | 0.01 | 0.34 | 0.29 | 93 | 1015.0 | |
| 20260903075558 | 68 | 0.0 | 0.0 | 0.01 | 0.34 | 0.29 | 93 | 1015.0 | |
| 20260903075057 | 68 | 0.0 | 0.0 | 0.01 | 0.34 | 0.29 | 93 | 1015.1 | |
| 20260903074602 | 68 | 0.0 | 0.0 | 0.01 | 0.34 | 0.29 | 93 | 1015.2 | |
| 20260903074057 | 68 | 0.0 | 0.0 | 0.01 | 0.34 | 0.29 | 93 | 1015.3 | |
| 20260903073557 | 68 | 0.0 | 0.0 | 0.02 | 0.34 | 0.29 | 93 | 1015.2 | |
| 20260903073115 | 68 | 0.0 | 0.0 | 0.02 | 0.34 | 0.29 | 93 | 1015.3 | |
| 20260903072557 | 68 | 0.0 | 0.0 | 0.02 | 0.34 | 0.29 | 93 | 1015.3 | |
| 20260903072058 | 68 | 0.0 | 0.0 | 0.03 | 0.34 | 0.29 | 93 | 1015.4 | |
| 20260903071606 | 68 | 0.0 | 0.0 | 0.03 | 0.34 | 0.29 | 93 | 1015.6 | |
| 20260903071059 | 68 | 0.0 | 0.0 | 0.04 | 0.34 | 0.29 | 93 | 1015.5 | |
| 20260903070600 | 68 | 0.0 | 0.0 | 0.04 | 0.33 | 0.28 | 93 | 1015.5 | |
| 20260903070109 | 68 | 0.0 | 0.0 | 0.05 | 0.33 | 0.28 | 93 | 1015.7 | |
| 20260903065557 | 68 | 0.0 | 0.0 | 0.08 | 0.33 | 0.28 | 93 | 1015.5 | |
| 20260903065056 | 68 | 0.0 | 0.0 | 0.09 | 0.33 | 0.28 | 93 | 1015.5 | |
| 20260903064604 | 68 | 0.0 | 0.0 | 0.13 | 0.33 | 0.28 | 93 | 1015.3 | |
| 20260903064057 | 68 | 0.0 | 0.0 | 0.25 | 0.33 | 0.28 | 93 | 1015.0 | |
| 20260903063556 | 68 | 0.0 | 0.0 | 0.25 | 0.32 | 0.27 | 93 | 1015.4 | |
| 20260903063126 | 68 | 0.0 | 0.0 | 0.25 | 0.32 | 0.27 | 92 | 1015.5 | |
| 20260903062557 | 68 | 0.0 | 0.0 | 0.26 | 0.32 | 0.27 | 93 | 1015.8 | |
| 20260903062057 | 68 | 0.0 | 0.0 | 0.25 | 0.31 | 0.26 | 93 | 1015.9 | |
| 20260903061604 | 68 | 0.0 | 0.0 | 0.25 | 0.31 | 0.26 | 93 | 1015.9 | |
| 20260903061100 | 69 | 0.0 | 0.0 | 0.24 | 0.30 | 0.25 | 93 | 1015.9 | |
| 20260903060556 | 69 | 0.0 | 0.0 | 0.23 | 0.29 | 0.24 | 92 | 1016.1 | |
| 20260903060101 | 69 | 0.0 | 0.0 | 0.22 | 0.28 | 0.23 | 92 | 1016.6 | |
| 20260903055556 | 69 | 0.0 | 0.0 | 0.19 | 0.26 | 0.20 | 92 | 1017.0 | |
| 20260903055056 | 69 | 0.0 | 0.0 | 0.19 | 0.25 | 0.19 | 92 | 1016.6 | |
| 20260903054602 | 69 | 0.0 | 0.0 | 0.14 | 0.20 | 0.14 | 92 | 1016.7 | |
| 20260903054056 | 69 | 0.0 | 0.0 | 0.03 | 0.09 | 0.03 | 92 | 1016.7 | |
| 20260903053557 | 68 | 0.0 | 0.0 | 0.02 | 0.08 | 0.02 | 92 | 1016.9 | |
| 20260903053105 | 68 | 0.0 | 0.0 | 0.02 | 0.08 | 0.02 | 92 | 1017.0 | |
| 20260903052556 | 69 | 0.0 | 0.0 | 0.01 | 0.07 | 0.01 | 91 | 1017.1 | |
| 20260903052059 | 69 | 0.0 | 0.0 | 0.01 | 0.07 | 0.01 | 91 | 1017.2 | |
| 20260903051557 | 69 | 0.0 | 0.0 | 0.01 | 0.07 | 0.01 | 91 | 1017.1 | |
| 20260903051055 | 69 | 0.0 | 0.0 | 0.01 | 0.07 | 0.01 | 91 | 1017.4 | |
| 20260903050558 | 69 | 0.0 | 0.0 | 0.01 | 0.07 | 0.01 | 91 | 1017.4 | |
| 20260903050107 | 69 | 0.0 | 0.0 | 0.01 | 0.07 | 0.01 | 91 | 1017.4 | |
| 20260903045557 | 69 | 0.0 | 0.0 | 0.01 | 0.07 | 0.01 | 91 | 1017.4 | |
| 20260903045058 | 69 | 0.0 | 0.0 | 0.00 | 0.06 | 0.00 | 91 | 1017.5 | |
| 20260903044605 | 69 | 0.0 | 0.0 | 0.00 | 0.06 | 0.00 | 91 | 1017.6 | |
| 20260903044056 | 69 | 0.0 | 0.0 | 0.00 | 0.06 | 0.00 | 91 | 1017.5 | |
| 20260903043556 | 69 | 0.0 | 0.0 | 0.00 | 0.06 | 0.00 | 91 | 1017.8 | |
| 20260903043111 | 69 | 0.0 | 0.0 | 0.00 | 0.06 | 0.00 | 91 | 1017.7 | |
| 20260903042556 | 69 | 0.0 | 0.0 | 0.00 | 0.06 | 0.00 | 91 | 1017.8 | |
| 20260903042056 | 69 | 0.0 | 0.0 | 0.00 | 0.06 | 0.00 | 91 | 1017.8 | |
| 20260903041611 | 69 | 0.0 | 0.0 | 0.00 | 0.06 | 0.00 | 91 | 1017.8 | |
| 20260903041056 | 69 | 0.0 | 0.0 | 0.00 | 0.06 | 0.00 | 91 | 1018.0 | |
| 20260903040557 | 69 | 0.0 | 0.0 | 0.00 | 0.06 | 0.00 | 91 | 1018.1 | |
| 20260903040112 | 69 | 0.0 | 0.0 | 0.00 | 0.06 | 0.00 | 91 | 1018.1 | |
| 20260903035556 | 69 | 0.0 | 0.0 | 0.00 | 0.07 | 0.06 | 91 | 1018.0 | |
| 20260903035056 | 69 | 0.0 | 0.0 | 0.00 | 0.07 | 0.06 | 91 | 1017.8 | |
| 20260903034603 | 69 | 0.0 | 0.0 | 0.00 | 0.07 | 0.06 | 91 | 1017.6 | |
| 20260903034057 | 69 | 0.0 | 0.0 | 0.00 | 0.07 | 0.06 | 91 | 1017.4 | |
| 20260903033558 | 69 | 0.0 | 0.0 | 0.00 | 0.07 | 0.06 | 91 | 1017.6 | |
| 20260903033103 | 69 | 0.0 | 0.0 | 0.00 | 0.07 | 0.06 | 91 | 1017.7 | |
| 20260903032554 | 69 | 0.0 | 0.0 | 0.00 | 0.07 | 0.06 | 90 | 1017.5 | |
| 20260903032057 | 69 | 0.0 | 0.0 | 0.00 | 0.07 | 0.06 | 90 | 1017.5 | |
| 20260903031604 | 69 | 0.0 | 0.0 | 0.00 | 0.07 | 0.06 | 90 | 1017.6 | |
| 20260903031059 | 68 | 0.0 | 0.0 | 0.00 | 0.07 | 0.06 | 90 | 1018.0 | |
| 20260903030557 | 68 | 0.0 | 0.0 | 0.00 | 0.07 | 0.06 | 90 | 1018.1 | |
| 20260903030110 | 68 | 0.0 | 0.0 | 0.00 | 0.07 | 0.06 | 90 | 1018.3 | |
| 20260903025554 | 68 | 0.0 | 0.0 | 0.00 | 0.07 | 0.06 | 90 | 1018.3 | |
| 20260903025057 | 68 | 0.0 | 0.0 | 0.00 | 0.07 | 0.06 | 90 | 1018.5 | |
| 20260903024603 | 68 | 0.0 | 0.0 | 0.00 | 0.07 | 0.06 | 90 | 1018.6 | |
| 20260903024101 | 68 | 0.0 | 0.0 | 0.00 | 0.07 | 0.06 | 90 | 1018.5 | |
| 20260903023601 | 68 | 0.0 | 0.0 | 0.00 | 0.07 | 0.06 | 90 | 1018.4 | |
| 20260903023107 | 68 | 0.0 | 0.0 | 0.00 | 0.07 | 0.06 | 90 | 1018.2 | |
| 20260903022556 | 68 | 0.0 | 0.0 | 0.00 | 0.07 | 0.06 | 90 | 1018.4 | |
| 20260903022054 | 68 | 0.0 | 0.0 | 0.00 | 0.07 | 0.06 | 90 | 1018.5 | |
| 20260903021608 | 68 | 0.0 | 0.0 | 0.00 | 0.07 | 0.06 | 90 | 1018.5 | |
| 20260903021054 | 68 | 0.0 | 0.0 | 0.00 | 0.07 | 0.06 | 90 | 1018.6 | |
| 20260903020556 | 68 | 0.0 | 0.0 | 0.00 | 0.07 | 0.06 | 90 | 1018.7 | |
| 20260903015557 | 68 | 0.0 | 0.0 | 0.00 | 0.07 | 0.06 | 90 | 1018.6 | |
| 20260903015058 | 68 | 0.0 | 0.0 | 0.00 | 0.07 | 0.06 | 90 | 1018.7 | |
| 20260903014603 | 68 | 0.0 | 0.0 | 0.00 | 0.07 | 0.06 | 90 | 1018.7 | |
| 20260903014056 | 68 | 0.0 | 0.0 | 0.00 | 0.07 | 0.06 | 90 | 1018.8 | |
| 20260903013557 | 68 | 0.0 | 0.0 | 0.00 | 0.07 | 0.06 | 90 | 1018.8 | |
| 20260903013100 | 68 | 0.0 | 0.0 | 0.00 | 0.07 | 0.06 | 90 | 1018.8 | |
| 20260903012556 | 68 | 0.0 | 0.0 | 0.00 | 0.07 | 0.06 | 90 | 1018.9 | |
| 20260903012057 | 68 | 0.0 | 0.0 | 0.00 | 0.07 | 0.06 | 90 | 1019.1 | |
| 20260903011610 | 68 | 0.0 | 0.0 | 0.00 | 0.07 | 0.06 | 90 | 1018.9 | |
| 20260903011057 | 68 | 0.0 | 0.0 | 0.00 | 0.07 | 0.06 | 90 | 1018.9 | |
| 20260903010557 | 68 | 0.0 | 0.0 | 0.00 | 0.07 | 0.06 | 90 | 1018.9 | |
| 20260903010103 | 68 | 0.0 | 0.0 | 0.00 | 0.07 | 0.06 | 90 | 1018.9 | |
| 20260903005557 | 68 | 0.0 | 0.0 | 0.00 | 0.07 | 0.06 | 90 | 1018.9 | |
| 20260903005056 | 68 | 0.0 | 0.0 | 0.00 | 0.07 | 0.06 | 90 | 1019.1 | |
| 20260903004620 | 68 | 0.0 | 0.0 | 0.00 | 0.07 | 0.06 | 90 | 1019.2 | |
| 20260903004057 | 68 | 0.0 | 0.0 | 0.00 | 0.07 | 0.06 | 90 | 1019.1 | |
| 20260903003556 | 68 | 0.0 | 0.0 | 0.00 | 0.07 | 0.06 | 90 | 1019.0 | |
| 20260903003102 | 68 | 0.0 | 0.0 | 0.00 | 0.07 | 0.06 | 90 | 1018.8 | |
| 20260903002557 | 68 | 0.0 | 0.0 | 0.00 | 0.07 | 0.06 | 90 | 1018.8 | |
| 20260903002057 | 68 | 0.0 | 0.0 | 0.00 | 0.07 | 0.06 | 90 | 1018.6 | |
| 20260903001606 | 68 | 0.0 | 0.0 | 0.00 | 0.07 | 0.06 | 90 | 1018.6 |